Regional Weather Roundup
Issued by NWS Portland, ME

Home | Current Version | Previous Version | Text Only | Print | Product List | Glossary On
Versions: 1 2 3 4 5 6 7 8 9 10 11 12 13 14 15 16 17 18 19 20 21 22 23 24 25 26 27 28 29 30 31 32 33 34 35 36 37 38 39 40 41 42 43 44 45 46 47 48 49 50
000
ASUS41 KGYX 250210
RWRGYX
WEATHER ROUNDUP FOR MAINE AND NEW HAMPSHIRE
NATIONAL WEATHER SERVICE GRAY ME
1000 PM EDT TUE MAY 24 2016

MEZ002-005-006-010-012-015-018-020-021-024-026-027-029-250300-
MAINE

CITY           SKY/WX    TMP DP  RH WIND       PRES   REMARKS
PORTLAND       FOG       51  51 100 CALM      29.98S VSB 1
SANFORD        CLOUDY    52  48  87 CALM      29.98S
BAR HARBOR     FOG       52  52 100 CALM      29.99S VSB 1/2
WISCASSET      CLOUDY    55  53  93 CALM      29.98S
ROCKLAND       CLOUDY    52  51  97 NE5       29.97F FOG
FRYEBURG       CLOUDY    59  57  93 CALM      29.97S
LEWISTONAUBURN CLOUDY    55  54  94 CALM      29.97S
AUGUSTA        CLOUDY    58  54  86 SE3       29.97S
WATERVILLE     CLOUDY    59  56  89 S3        29.95S
BANGOR         CLOUDY    60  55  83 S8        29.97F
GREENVILLE       N/A     58  54  86 S5        29.94S
MILLINOCKET    CLEAR     59  56  89 CALM      29.96S
HOULTON        CLEAR     62  56  80 S3        29.94R
PRESQUE ISLE   CLEAR     63  57  81 S6        29.93R
FRENCHVILLE    CLEAR     66  53  63 S9        29.90R
CARIBOU        CLEAR     66  57  72 S5        29.91S
$$

NHZ002-005-008-009-011-012-014-250300-
NEW HAMPSHIRE

CITY           SKY/WX    TMP DP  RH WIND       PRES   REMARKS
ROCHESTER      CLOUDY    55  52  89 CALM      29.97R
NASHUA         CLOUDY    58  55  90 E3        29.98R
MANCHESTER     CLOUDY    58  53  84 CALM      29.96R
CONCORD        CLOUDY    60  56  86 CALM      29.97R
PLYMOUTH       CLOUDY    61  58  92 CALM      29.96S
BERLIN         CLOUDY    60  54  80 CALM      29.96R
WHITEFIELD     MOCLDY    57  54  89 CALM      29.96R
JAFFREY        CLOUDY    58  56  93 CALM      29.98R
KEENE          PTCLDY    54  52  94 CALM      29.99R
LEBANON        MOCLDY    58  55  90 CALM      29.95S
MT WASHINGTON  MOCLDY    45  30  57 NE8         N/A
$$

VTZ005-007-008-250300-
VERMONT

CITY           SKY/WX    TMP DP  RH WIND       PRES   REMARKS
ST JOHNSBURY     N/A     60  57  89 MISG      29.94R
MONTPELIER     FAIR      56  55  97 CALM      29.99S
BURLINGTON     FAIR      66  53  63 S10       29.91R
$$

MAZ007-012-024-CTZ003-RIZ002-NYZ038-NYZ072-250300-
SOUTHERN NEW ENGLAND AND NY

CITY           SKY/WX    TMP DP  RH WIND       PRES   REMARKS
BOSTON         CLOUDY    53  51  93 N5        29.98R
WORCESTER      CLOUDY    56  54  93 CALM      29.98R
NANTUCKET      CLOUDY    55  54  96 W10       29.93R FOG
PROVIDENCE     CLOUDY    56  54  93 CALM      29.97R
HARTFORD       PTCLDY    57  55  93 NW6       29.96R
ALBANY         CLOUDY    59  54  83 S5        29.96S
NEW YORK CITY  MOCLDY    68  58  70 CALM      29.97R
$$

ANZ081-ANZ082-ANZ150-NHZ014-MEZ023>029-250300-
COASTAL MARINE OBSERVATIONS

STATION/POSITION TIME  TEMP    WIND        PRES    WAVE
                       AIR SEA DIR/SP/G            HT/PER
                 (UTC) (F)     (DEG/KT/KT) (MB)    (FT/S)
MOUNT DESERT ROC 0200   47      80/ 11/ 11 1015.5R
MATINICUS ROCK   0100   48      30/  7/  8 1014.5F
ISLE OF SHOALS   0100   50      10/ 10/ 11 1014.7R
JEFFREYS LEDGE   0108      51                N/A     4/ 8
CASHES LEDGE BUO 0150   49 49   50/  6/  6 1014.4R   4/ 8
GEORGES BANK BUO 0150   51 50              1015.4R   6/ 8
$$

.............KEY..............
   WCI - WIND CHILL
   TC  - TEMPERATURE IN CELSIUS
   VSB - VISIBILITY IN MILES
   HX  - HEAT INDEX
   FAIR- INDICATES FEW OR NO CLOUDS BELOW 12,000 FT, WITH NO
         SIGNIFICANT WEATHER AND/OR OBSTRUCTIONS TO VISIBILITY.






USA.gov is the U.S. government's official web portal to all federal, state and local government web resources and services.